Location: G�ppingen
(48.7089°N, 9.6563°E)
Time: 08:43:16
(UTC+02:00)

M-CUBED/EXP-1 PRIME - Pass Details

Date: 23 March 2019
Orbit: 430 x 671 km, 101.7° (Epoch: 24 April)

Event Time Altitude Azimuth Distance (km) Brightness Sun altitude
Rises 20:29:21 0° 21° (NNE) 2,935 ? -18.6°
Reaches altitude 10° 20:31:31 10° 23° (NNE) 2,049 ? -18.9°
Maximum altitude 20:36:00 72° 108° (ESE) 698 ? -19.6°
Drops below altitude 10° 20:40:36 10° 193° (SSW) 2,095 ? -20.2°
Sets 20:42:50 0° 196° (SSW) 3,006 ? -20.6°
